{"data":{"norad_id":60143,"epoch":"2026-05-25T04:40:01.179840Z","epoch_age_seconds":58138,"freshness":"FRESH","line1":"1 60143U 24120J   26145.19445810  .00000738  00000+0  37040-4 0  9998","line2":"2 60143  53.1607 324.2265 0000846  93.2004 266.9094 15.30200808108178","mean_motion":15.30200808,"eccentricity":8.46e-5,"inclination_deg":53.1607,"raan_deg":324.2265,"arg_perigee_deg":93.2004,"mean_anomaly_deg":266.9094,"bstar":3.704e-5,"rev_number":10817,"period_min":94.105296015502,"perigee_km":474.63286349706,"apogee_km":475.792450259,"semimajor_km":6853.349656878,"source":"CELESTRAK","updated_at":"2026-05-25T13:38:19.189437Z"}}